Location: Paderno d�Adda
(45.6667°N, 9.4333°E)
Time: 06:29:56
(UTC+00:00)

ATLAS 3B R/B - Pass Details

Date: 25 January 2021
Orbit: 1006 x 1189 km, 63.8° (Epoch: 26 February)

Event Time Altitude Azimuth Distance (km) Brightness Sun altitude
Rises 05:35:25 0° 172° (S) 3,718 5.8 -13.3°
Reaches altitude 10° 05:38:33 10° 158° (SSE) 2,772 5.4 -12.7°
Maximum altitude 05:43:23 23° 109° (ESE) 2,025 5.3 -11.9°
Drops below altitude 10° 05:48:17 10° 61° (ENE) 2,820 5.6 -11.1°
Sets 05:51:30 0° 47° (NE) 3,800 6.0 -10.5°
